FW3192 Weather Reports


Display with metric or nautical units.
time (UTC)temp
F
wind
direction
speed
MPH
gust
MPH
rain 1hr
in
rain 24hr
in
rain mn
in
humidity
%
barometer
mb
20260904143035 60 339 5.0 8.0 0.00 0.21 0.00 83 1007.2
20260904141527 60 325 6.0 11.0 0.00 0.21 0.00 83 1007.1
20260904140039 60 323 8.0 13.0 0.00 0.21 0.00 83 1007.3
20260904134526 60 9 5.0 10.0 0.00 0.21 0.00 83 1007.6
20260904133023 60 310 8.0 11.0 0.00 0.21 0.00 82 1007.7
20260904131521 60 331 6.0 10.0 0.00 0.21 0.00 84 1007.4
20260904130018 59 333 8.0 11.0 0.00 0.21 0.00 84 1007.5
20260904124516 60 4 6.0 10.0 0.00 0.21 0.00 84 1007.3
20260904123014 60 351 6.0 13.0 0.00 0.21 0.00 83 1007.5
20260904121515 61 3 7.0 12.0 0.00 0.21 0.00 83 1007.6
20260904120006 61 3 7.0 11.0 0.00 0.21 0.00 83 1007.8
20260904114549 61 355 6.0 11.0 0.00 0.21 0.00 84 1007.9
20260904113046 61 338 7.0 12.0 0.00 0.21 0.00 83 1008.0
20260904111526 62 332 9.0 14.0 0.00 0.21 0.00 81 1008.1
20260904110025 62 10 8.0 13.0 0.00 0.21 0.21 82 1008.1
20260904104624 63 6 8.0 12.0 0.00 0.21 0.21 81 1007.9
20260904103026 63 3 8.0 12.0 0.00 0.21 0.21 81 1008.0
20260904101522 64 35 11.0 17.0 0.00 0.21 0.21 80 1007.4
20260904100030 64 321 8.0 14.0 0.00 0.21 0.21 80 1008.2
20260904094529 64 2 7.0 15.0 0.00 0.21 0.21 80 1008.0
20260904093021 64 8 10.0 14.0 0.00 0.21 0.21 80 1007.7
20260904091508 65 350 8.0 11.0 0.00 0.21 0.21 81 1007.6
20260904090006 64 18 6.0 9.0 0.00 0.21 0.21 84 1007.7
20260904084506 64 38 4.0 7.0 0.00 0.21 0.21 88 1007.7
20260904083014 64 8 4.0 7.0 0.04 0.21 0.21 89 1007.7
20260904081505 64 64 0.0 3.0 0.04 0.21 0.21 89 1007.6
20260904080004 65 84 2.0 6.0 0.04 0.21 0.21 87 1007.5
20260904074503 66 16 4.0 7.0 0.04 0.21 0.21 86 1007.8
20260904073003 66 36 4.0 8.0 0.00 0.17 0.17 84 1007.8
20260904071602 67 47 3.0 7.0 0.00 0.17 0.17 84 1007.8
20260904070046 67 38 4.0 8.0 0.00 0.17 0.17 83 1008.1
20260904064543 67 49 3.0 8.0 0.00 0.17 0.17 83 1008.2
20260904063044 66 28 4.0 8.0 0.00 0.17 0.17 82 1008.4
20260904061542 66 49 5.0 10.0 0.00 0.17 0.17 82 1008.4
20260904060040 66 42 10.0 14.0 0.00 0.17 0.17 80 1008.4
20260904054541 66 34 8.0 16.0 0.00 0.17 0.17 79 1008.6
20260904053034 66 40 6.0 14.0 0.00 0.17 0.17 79 1008.6
20260904051514 65 38 8.0 16.0 0.00 0.17 0.17 81 1008.9
20260904050010 64 29 8.0 15.0 0.00 0.17 0.17 80 1009.3
20260904044556 64 57 8.0 16.0 0.00 0.17 0.17 81 1009.6
20260904043105 64 42 11.0 16.0 0.00 0.17 0.17 80 1009.7
20260904041549 63 56 7.0 14.0 0.00 0.17 0.17 81 1010.0
20260904040047 63 358 3.0 12.0 0.00 0.17 0.17 82 1010.0
20260904034542 62 43 7.0 12.0 0.00 0.17 0.17 82 1010.7
20260904033039 62 23 9.0 16.0 0.00 0.17 0.17 82 1011.1
20260904031536 62 44 9.0 14.0 0.01 0.17 0.17 83 1011.4
20260904030032 61 32 4.0 13.0 0.01 0.17 0.17 90 1011.9
20260904024516 59 37 4.0 12.0 0.02 0.17 0.17 94 1012.2
20260904023013 57 93 7.0 10.0 0.12 0.17 0.17 94 1012.7
20260904021510 56 140 3.0 5.0 0.14 0.16 0.16 94 1014.2
20260904020010 57 47 3.0 12.0 0.14 0.18 0.16 93 1014.1
20260904014508 56 49 8.0 14.0 0.14 0.17 0.15 91 1013.7
20260904013005 58 20 4.0 7.0 0.03 0.06 0.04 85 1015.0
20260904011509 58 62 4.0 11.0 0.01 0.04 0.02 86 1014.6
20260904010006 58 59 6.0 12.0 0.01 0.04 0.02 86 1014.5
20260904004503 58 26 9.0 13.0 0.00 0.03 0.01 84 1015.3
20260904003047 58 7 10.0 14.0 0.01 0.03 0.01 83 1015.9
20260904001551 58 29 11.0 17.0 0.01 0.03 0.01 84 1015.9
20260904000045 58 27 13.0 18.0 0.01 0.03 0.01 84 1015.6
20260903234544 58 36 11.0 17.0 0.01 0.03 0.01 84 1015.5
20260903233043 58 95 11.0 17.0 0.00 0.02 0.00 83 1015.4
20260903231543 58 36 10.0 15.0 0.00 0.02 0.00 83 1015.7
20260903230040 57 26 12.0 17.0 0.00 0.02 0.00 84 1015.7
20260903224539 56 60 9.0 16.0 0.00 0.02 0.00 86 1015.7
20260903223048 56 66 8.0 14.0 0.00 0.02 0.00 86 1015.6
20260903221537 55 38 5.0 14.0 0.00 0.02 0.00 87 1015.6
20260903220053 55 45 9.0 14.0 0.00 0.02 0.00 87 1015.7
20260903214535 54 31 5.0 14.0 0.00 0.02 0.00 88 1015.4
20260903213036 54 29 6.0 10.0 0.00 0.02 0.00 88 1015.4
20260903211536 54 58 6.0 10.0 0.00 0.02 0.00 89 1015.3
20260903210035 54 83 6.0 11.0 0.00 0.02 0.00 88 1015.2
20260903204530 54 45 4.0 12.0 0.00 0.02 0.00 89 1015.3
20260903203029 53 81 5.0 11.0 0.00 0.02 0.00 89 1015.3
20260903201526 53 33 7.0 11.0 0.00 0.02 0.00 90 1015.8
20260903200013 52 29 6.0 11.0 0.00 0.02 0.00 90 1016.0
20260903194511 52 29 5.0 11.0 0.00 0.02 0.00 91 1015.9
20260903193011 52 45 6.0 12.0 0.00 0.02 0.00 91 1016.2
20260903191508 52 56 8.0 12.0 0.00 0.02 0.00 91 1016.6
20260903190004 52 40 6.0 11.0 0.00 0.02 0.00 91 1016.6
20260903184502 52 37 5.0 9.0 0.00 0.02 0.00 92 1016.4
20260903183059 51 56 2.0 7.0 0.00 0.02 0.00 92 1016.4
20260903181558 51 27 1.0 7.0 0.00 0.02 0.00 92 1016.3
20260903180038 51 42 0.0 5.0 0.00 0.02 0.00 92 1017.0
20260903174534 52 45 4.0 6.0 0.00 0.02 0.00 92 1017.4
20260903173024 52 37 1.0 4.0 0.00 0.02 0.00 91 1017.5
20260903171513 52 55 1.0 3.0 0.00 0.02 0.00 91 1017.8
20260903170009 53 39 4.0 6.0 0.00 0.02 0.00 91 1018.2
20260903164506 54 42 3.0 5.0 0.00 0.02 0.00 91 1018.3
20260903163006 54 42 1.0 2.0 0.00 0.02 0.00 91 1018.3
20260903161503 54 35 1.0 2.0 0.00 0.02 0.00 90 1018.6
20260903160002 54 39 1.0 2.0 0.00 0.02 0.00 90 1018.5
20260903154502 54 76 1.0 3.0 0.00 0.02 0.00 90 1018.3
20260903153035 54 88 3.0 5.0 0.00 0.02 0.00 90 1018.4
20260903151535 55 90 1.0 3.0 0.00 0.02 0.00 89 1018.6
20260903150043 55 43 0.0 1.0 0.00 0.02 0.00 89 1018.9
20260903144535 55 34 0.0 1.0 0.00 0.02 0.00 89 1019.1